www.pogodaiklimat.ru

Погода и климат >> Архив погоды >> Таиланд >> Суфанбури


ПОГОДА в Суфанбури

  • Прогноз погоды в Суфанбури
  • Монитор погоды в Суфанбури

АРХИВ ПОГОДЫ в Суфанбури

Время (UTC), дата Ветер
(напр.,м/с)
 
Видим.   Явления Облачность Т
(С)
Тd
(С)
f
(%)
Тe
(С)
Тes
(С)
Комфортность P
(гПа)
Po
(гПа)
Тmin
(С)
Tmax
(С)
R
(мм)
R24
(мм)
S
(см)
18 16.07 Ю 2 10 км 4/3 600 м
[Sc Ac lent Cs]
+28.1 +23.0 74 +38 +38 очень
душно
1005.3 1004.3
21 16.07 Ю 5 10 км 6/1 600 м
[Sc Ac lent Cs]
+26.9 +22.9 79 +36 +36 очень
душно
1003.7 1002.6
00 17.07 штиль 0 10 км 6/0
[Cs]
+26.9 +23.4 81 +36 +38 очень
душно
1004.0 1002.9 +25.8
03 17.07 Ю 5 12 км 8/1 600 м
[Cu hum Cs]
+32.3 +22.9 58 +42 +49 опасность
перегрева
1005.2 1004.2
06 17.07 ЮВ 2 12 км пыльная буря {метель} 8/4 600 м
[Cu med, cong Ac lent Cs]
+35.7 +24.7 53 +48 +57 опасность
перегрева
1003.8 1002.8
09 17.07 ЮВ 2 12 км 8/3 600 м
[Cu med, cong Ac lent Cs]
+34.6 +24.7 57 +48 +52 опасность
перегрева
1001.5 1000.5
12 17.07 Ю 2 12 км 8/3 600 м
[Cu med, cong Ac lent Cs]
+32.0 +25.7 69 +47 +47 опасность
перегрева
1001.8 1000.8 +37.5
15 17.07 ЮЗ 4 10 км 3/1 600 м
[Cu med, cong Cs]
+29.6 +23.4 69 +40 +40 очень
душно
1004.3 1003.3
18 17.07 ЮЗ 3 10 км 5/0
[Ac lent Cs]
+28.1 +23.6 77 +39 +39 очень
душно
1004.0 1003.0
21 17.07 штиль 0 10 км 6/0
[Cs]
+27.0 +24.0 84 +37 +37 очень
душно
1003.1 1002.1
00 18.07 ЮЗ 2 10 км 6/0
[Cs]
+27.5 +23.6 79 +37 +39 очень
душно
1004.1 1003.1 +26.0
03 18.07 З 2 12 км 3/1 600 м
[Cu hum Ac trans Cs]
+32.9 +23.7 59 +44 +57 опасность
перегрева
1004.5 1003.5
06 18.07 ЮЗ 7 14 км 6/4 600 м
[Cu med, cong Cs]
+35.8 +24.0 51 +48 +51 опасность
перегрева
1003.6 1002.6
09 18.07 ЮЗ 3 14 км 8/3 600 м
[Cu Sc Cs]
+36.5 +23.7 48 +47 +52 опасность
перегрева
1001.1 1000.2
12 18.07 Ю 2 12 км {дождь} 8/3 600 м
[Sc Ac und Cs]
+31.3 +23.3 63 +42 +42 опасность
перегрева
1002.8 1001.8 +37.5 0.0
15 18.07 Ю 2 10 км 3/0
[Ac trans Cs]
+28.5 +25.7 85 +42 +42 опасность
перегрева
1004.9 1003.9
18 18.07 Ю 2 10 км 6/0
[Cs]
+28.3 +24.3 79 +40 +40 очень
душно
1004.2 1003.2
21 18.07 Ю 2 10 км 6/0
[Cs]
+27.2 +23.9 82 +37 +37 очень
душно
1003.1 1002.1
00 19.07 штиль 0 10 км 3/0
[Cs]
+27.5 +23.3 78 +37 +39 очень
душно
1004.4 1003.4 +26.4
03 19.07 штиль 0 12 км 3/0
[Cs]
+33.0 +23.7 58 +44 +64 опасность
перегрева
1005.4 1004.5
06 19.07 штиль 0 12 км 5/3 600 м
[Cu med, cong Cs]
+37.1 +24.4 48 +49 +68 опасность
перегрева
1004.4 1003.4
09 19.07 штиль 0 12 км 5/3 600 м
[Cu med, cong Cs]
+37.4 +24.8 49 +50 +58 опасность
перегрева
1001.8 1000.8
12 19.07 Ю 5 12 км зарница 8/3 600 м
[Cb cap Ac lent Cs]
+27.1 +24.1 84 +38 +38 очень
душно
1004.0 1002.9 +37.9
15 19.07 Ю 3 10 км 10/4 600 м
[Sc Ac lent Cs]
+26.9 +23.5 82 +37 +37 очень
душно
1006.8 1005.8
18 19.07 штиль 0 10 км {дождь} 8/3 600 м
[Sc Ac trans Cs]
+26.7 +25.8 95 +40 +40 очень
душно
1005.6 1004.6 0.8
21 19.07 штиль 0 10 км 3/0
[Cs]
+26.6 +25.2 92 +38 +38 очень
душно
1004.8 1003.8
00 20.07 ЮЗ 4 10 км 3/0
[Ac lent Cs]
+26.9 +24.7 88 +38 +39 очень
душно
1006.5 1005.5 +26.0
03 20.07 Ю 2 12 км 4/0
[Ac lent Cs]
+32.2 +24.2 63 +44 +56 опасность
перегрева
1006.8 1005.8
06 20.07 Ю 3 12 км 6/3 600 м
[Cu med, cong Ac lent Cs]
+35.4 +25.0 55 +49 +59 опасность
перегрева
1005.9 1004.9
09 20.07 Ю 2 12 км 8/0
[Ac lent Cs]
+36.4 +24.7 51 +49 +54 опасность
перегрева
1003.3 1002.3
12 20.07 Ю 3 10 км {гроза} 10/4 600 м
[Cb cap Ac As Cs]
+28.0 +23.5 77 +38 +38 очень
душно
1004.8 1003.8 +37.5
15 20.07 Ю 1 10 км 8/4 600 м
[Cu med, cong Ac As Cs]
+28.3 +25.0 82 +41 +41 опасность
перегрева
1007.0 1006.0
18 20.07 штиль 0 10 км 8/3 600 м
[Sc Ac As Cs]
+27.9 +25.9 89 +42 +42 опасность
перегрева
1006.8 1005.8
21 20.07 штиль 0 10 км 4/1 600 м
[Sc Ac trans Cs]
+27.5 +25.4 88 +40 +40 очень
душно
1006.2 1005.2
00 21.07 штиль 0 10 км 10/4 600 м
[Sc Ac und Cs]
+27.9 +25.6 87 +41 +42 опасность
перегрева
1007.8 1006.8 +27.2
03 21.07 Ю 5 12 км 9/3 600 м
[Cu hum Ac trans Cs]
+32.3 +25.6 68 +47 +50 опасность
перегрева
1008.4 1007.4
06 21.07 Ю 2 12 км 8/3 600 м
[Cu med, cong Ac trans Cs]
+33.8 +24.3 58 +46 +56 опасность
перегрева
1007.3 1006.3
09 21.07 ЮЗ 6 12 км 6/3 600 м
[Cu med, cong Ac trans Cs]
+35.6 +24.4 53 +48 +50 опасность
перегрева
1005.1 1004.1
12 21.07 штиль 0 10 км слаб. дождь 10/5 600 м
[Sc Ac und Cs]
+28.5 +26.7 90 +44 +44 опасность
перегрева
1006.0 1005.0 +36.2 7
15 21.07 штиль 0 10 км {дождь} 10/5 600 м
[Sc Ac und Cs]
+28.2 +25.5 85 +41 +41 опасность
перегрева
1008.1 1007.1 0.1
18 21.07 штиль 0 10 км {дождь} 10/4 600 м
[Sc Ac und Cs]
+28.0 +23.9 78 +39 +39 очень
душно
1007.8 1006.8 7
21 21.07 штиль 0 10 км 9/3 600 м
[Sc Ac und Cs]
+27.5 +24.2 82 +38 +38 очень
душно
1007.5 1006.5
00 22.07 штиль 0 10 км 8/4 600 м
[Sc Ac trans Cs]
+27.6 +24.0 81 +38 +39 очень
душно
1008.4 1007.4 +26.8
03 22.07 штиль 0 12 км 8/3 600 м
[Cu hum Ac trans Cs]
+32.4 +23.5 59 +43 +52 опасность
перегрева
1009.2 1008.2
06 22.07 штиль 0 12 км 6/1 600 м
[Cu med, cong Ac trans Cs]
+35.1 +25.5 58 +50 +69 опасность
перегрева
1007.7 1006.7
09 22.07 штиль 0 12 км 8/3 600 м
[Cb cap Ac lent Cs]
+35.7 +24.9 54 +49 +54 опасность
перегрева
1004.8 1003.8
12 22.07 штиль 0 12 км 8/4 600 м
[Cb cap Ac lent Cs]
+31.8 +25.3 69 +46 +46 опасность
перегрева
1005.2 1004.2 +36.7
15 22.07 штиль 0 10 км 4/1 600 м
[Sc Cs]
+29.6 +26.7 84 +46 +46 опасность
перегрева
1007.5 1006.5
18 22.07 штиль 0 10 км 8/3 600 м
[Sc Ac lent Cs]
+29.0 +26.2 85 +44 +44 опасность
перегрева
1007.3 1006.3
21 22.07 штиль 0 10 км 6/0
[Cs]
+28.0 +25.1 84 +40 +40 очень
душно
1007.2 1006.2
00 23.07 Ю 3 10 км 8/3 600 м
[Cu Sc Ac As Cs]
+28.2 +23.5 76 +38 +39 очень
душно
1007.4 1006.4 +27.5
03 23.07 ЮЗ 7 12 км 9/3 600 м
[Cu Sc Ac As Cs]
+30.7 +25.2 73 +45 +46 опасность
перегрева
1007.5 1006.5
06 23.07 ЮЗ 4 12 км 9/4 600 м
[Cu Sc Ac As Cs]
+34.5 +23.6 53 +45 +51 опасность
перегрева
1006.0 1005.0
09 23.07 штиль 0 12 км 8/5 600 м
[Cu med, cong Ac As Cs]
+34.3 +24.8 58 +48 +51 опасность
перегрева
1004.8 1003.8
12 23.07 ЮЗ 3 12 км 10/4 600 м
[Sc Ac trans Cs]
+31.5 +23.2 61 +42 +42 опасность
перегрева
1005.0 1004.0 +35.5
15 23.07 штиль 0 10 км 10/4 600 м
[Sc Ac trans Cs]
+29.8 +23.1 67 +40 +40 очень
душно
1007.8 1006.8

 

Местоположение метеостанции Суфанбури (Таиланд): широта 14.47 долгота 100.13 высота над уровнем моря 8 м.

В архиве по умолчанию представлена погода в Суфанбури за последнюю неделю. Архивные данные за месяц целиком и за предыдущие месяцы, начиная с января 2011 года, Вы можете получить, выбрав интересующий диапазон дат из раскрывающегося списка и нажав кнопку "Ввод!".


*Определитесь, кто Вы:
робот инопланетянин человек

Внимание! Время в таблицах - всемирное. Для получения местного времени необходимо прибавить поправку, которая равна 7 ч.

Смотрите также архив погоды в соседних городах и на ближайших метеорологических станциях:

Погода в У-Тхонг Агромете (Таиланд) (34 км)
Погода в Накхонпатхоме (Таиланд) (53 км)
Погода в Лопбури (Таиланд) (63 км)
Погода в Аюттхая (Таиланд) (64 км)
Погода в Патхумтхани (Таиланд) (67 км)
Погода в Чайнат Агромете (Таиланд) (76 км)
Погода в Дон Муанг (Таиланд) (79 км)
Погода в Канчанабури (Таиланд) (82 км)
Погода в Сарабури (Таиланд) (85 км)
Погода в Бангкоке (Таиланд) (94 км)

Пояснения к столбцам:

Ветер - указаны скорость ветра в м/с - средняя за 10 мин, порывы в срок и между сроками (в фигурных скобках) и направление, откуда дует ветер: С - северный, СВ - северо-восточный, В - восточный, ЮВ - юго-восточный, Ю - южный, ЮЗ - юго-западный, З - западный, СЗ - северо-западный.
Видимость - горизонтальная дальность видимости в метрах или километрах. При видимости от 1 до 10 км при отсутствии осадков обычно наблюдается дымка, при ухудшении видимости до 1 км и менее - туман. В сухую погоду видимость может ухудшаться дымом, пылью или мглою.
Явления - указаны атмосферные явления, наблюдавшиеся в срок или в последний час перед сроком; фигурными скобками обозначены явления, наблюдавшиеся между сроками (за 1-3 часа до срока); квадратными скобками обозначены град или гололедные отложения с указанием их диаметра в мм.
Облачность - указаны через наклонную черту общая и нижняя облачность в баллах и высота нижней границы облаков в метрах; квадратными скобками обозначены формы облаков: Ci - перистые, Cs - перисто-слоистые, Cc - перисто-кучевые, Ac - высококучевые, As - высокослоистые, Sc - слоисто-кучевые, Ns - слоисто-дождевые, Cu - кучевые, Cb - кучево-дождевые. Подробнее классификацию облаков см. в Атласе облаков (PDF).
T - Температура воздуха - температура, измеренная на высоте 2 м над землей.
Td - Температура точки росы - температура, при понижении до которой содержащийся в воздухе водяной пар достигнет насыщения.
f - Относительная влажность воздуха - влажноcть воздуха, измеренная на высоте 2 м над землей.
Te - Эффективная температура - температура, которую ощущает одетый по сезону человек в тени. Характеристика душности погоды. При расчете учитывается влияние влажности воздуха и скорости ветра на теплоощущения человека.
Tes - Эффективная температура на солнце - температура, которую ощущает человек, с поправкой на солнечный нагрев. Характеристика знойности погоды. Зависит от высоты солнца над горизонтом, облачности и скорости ветра. Ночью, в пасмурную погоду, а также при ветре 12 м/с и более поправка равна нулю.
P - Атмосферное давление - приведенное к уровню моря атмосферное давление.
Po - Атмосферное давление - измеренное на уровне метеостанции атмосферное давление.
Tmin - Минимальная температура - минимум температуры воздуха на высоте 2 м над землей.
Tmax - Максимальная температура - максимум температуры воздуха на высоте 2 м над землей.
R - Количество осадков - Количество выпавших осадков за период времени, мм. При наведении курсора мыши на число - период времени, за который выпало указанное количество осадков.
R24 - Количество осадков - Количество выпавших осадков за 24 часа, мм.
S - Снежный покров - Высота снежного покрова, см. При наведении курсора мыши на число - состояние снежного покрова и степень покрытия местности в баллах.